This is the latest recevied weather packets stored in our database for station/object W1HVD. If no packets are shown the sender has not sent any weather packets the latest 10 day(s).
| Time | Temp. | Humidity | Pressure | Rain* | Wind** | Luminosity | Snow |
|---|---|---|---|---|---|---|---|
| 1778234881 | 3.89° C | 85% | 1009.8 hPa | 0 mm | - | 19 W/m² | - |
| 1778234580 | 3.89° C | 85% | 1009.9 hPa | 0 mm | - | 15 W/m² | - |
| 1778234275 | 3.33° C | 85% | 1009.8 hPa | 0 mm | - | 12 W/m² | - |
| 1778233972 | 3.33° C | 85% | 1009.6 hPa | 0 mm | - | 13 W/m² | - |
| 1778233669 | 3.33° C | 86% | 1009.6 hPa | 0 mm | - | 10 W/m² | - |
| 1778233367 | 3.33° C | 86% | 1009.7 hPa | 0 mm | - | 6 W/m² | - |
| 1778233063 | 3.33° C | 86% | 1009.6 hPa | 0 mm | - | 5 W/m² | - |
| 1778232761 | 2.78° C | 86% | 1009.6 hPa | 0 mm | - | 3 W/m² | - |
| 1778232457 | 2.78° C | 86% | 1009.4 hPa | 0 mm | - | 2 W/m² | - |
| 1778232156 | 2.78° C | 84% | 1009.4 hPa | 0 mm | - | 1 W/m² | - |
| 1778231854 | 2.78° C | 85% | 1009.7 hPa | 0 mm | - | 0 W/m² | - |
| 1778231550 | 3.33° C | 85% | 1009.5 hPa | 0 mm | - | 0 W/m² | - |
| 1778231248 | 3.33° C | 84% | 1009.5 hPa | 0 mm | - | 0 W/m² | - |
| 1778230946 | 2.78° C | 84% | 1009.4 hPa | 0 mm | - | 0 W/m² | - |
| 1778230641 | 2.78° C | 82% | 1009.3 hPa | 0 mm | - | 0 W/m² | - |
| 1778230339 | 3.33° C | 82% | 1009.4 hPa | 0 mm | - | 0 W/m² | - |
| 1778230034 | 3.33° C | 82% | 1009.2 hPa | 0 mm | - | 0 W/m² | - |
| 1778229732 | 3.33° C | 81% | 1009.4 hPa | 0 mm | - | 0 W/m² | - |
| 1778229430 | 3.33° C | 81% | 1009.3 hPa | 0 mm | - | 0 W/m² | - |
| 1778229127 | 3.33° C | 80% | 1009 hPa | 0 mm | - | 0 W/m² | - |
| 1778228822 | 3.33° C | 82% | 1008.9 hPa | 0 mm | - | 0 W/m² | - |
| 1778228519 | 3.33° C | 82% | 1009 hPa | 0 mm | - | 0 W/m² | - |
| 1778228217 | 3.33° C | 80% | 1008.9 hPa | 0 mm | - | 0 W/m² | - |
| 1778227913 | 3.33° C | 79% | 1008.8 hPa | 0 mm | - | 0 W/m² | - |
| 1778227611 | 3.89° C | 79% | 1008.8 hPa | 0 mm | - | 0 W/m² | - |
* Rain latest hour (hover to see other rain measurements)
** Current wind speed in m/s (hover to see current wind gust speed)